Regional Weather Roundup
Issued by NWS

Home | Current Version | Previous Version | Graphics & Text | Print | Product List | Glossary On
Versions: 1 2 3 4 5 6 7 8 9 10 11 12 13 14 15 16 17 18 19 20 21 22 23 24 25 26 27 28 29 30 31 32 33 34 35 36 37 38 39 40 41 42 43 44 45 46 47 48 49 50
000
ASUS45 KBOI 251610
RWRID

IDAHO REGIONAL WEATHER ROUNDUP
NATIONAL WEATHER SERVICE BOISE ID
1000 AM MDT WED APR 25 2018

NOTE: "FAIR" INDICATES FEW OR NO CLOUDS BELOW 12000 FEET
WITH NO SIGNIFICANT WEATHER AND/OR OBSTRUCTIONS TO VISIBILITY

IDZ012-014-251700-
SOUTHWEST IDAHO


CITY           SKY/WX    TMP DP  RH WIND       PRES   REMARKS
BOISE          SUNNY     56  34  43 NE3       30.20R
CALDWELL       SUNNY     59  34  39 SE10      30.20S
MOUNTAIN HOME  SUNNY     54  32  43 SE16      30.19F
$$

IDZ016-017-251700-
SOUTHCENTRAL IDAHO


CITY           SKY/WX    TMP DP  RH WIND       PRES   REMARKS
BURLEY         MOSUNNY   50  34  54 VRB5      30.22F
JEROME         MOSUNNY   55  34  45 E15       30.22S
TWIN FALLS     MOSUNNY   51  34  52 E8        30.22S
$$

IDZ019>023-251700-
SOUTHEAST IDAHO


CITY           SKY/WX    TMP DP  RH WIND       PRES   REMARKS
IDAHO FALLS    SUNNY     50  30  46 VRB3      30.27F
POCATELLO      SUNNY     52  36  54 VRB3      30.25F
REXBURG        SUNNY     49  31  49 S7        30.27F
$$

IDZ006-010-011-018-031-032-251700-
CENTRAL IDAHO MOUNTAINS


CITY           SKY/WX    TMP DP  RH WIND       PRES   REMARKS
MCCALL         SUNNY     46  33  60 CALM      30.22F
HAILEY         MOSUNNY   48  27  43 NW12      30.28F
STANLEY          N/A     37  26  64 MISG      30.29F
SALMON         MOSUNNY   43  28  55 N3        30.25F
CHALLIS        SUNNY     50  23  34 CALM      30.25F
$$

IDZ002-004-006-007-026-251700-
NORTHERN IDAHO


CITY           SKY/WX    TMP DP  RH WIND       PRES   REMARKS
LEWISTON       MOSUNNY   58  41  53 CALM      30.11S
LOWELL           N/A     50  32  50 CALM      30.20F
COEUR D`ALENE  SUNNY     55  35  47 S7        30.11S
MULLAN PASS    MOSUNNY   47  26  44 VRB3      30.13F
$$



USA.gov is the U.S. government's official web portal to all federal, state and local government web resources and services.